[[{"header":{"parameterUnit":"m.s-1","parameterCategory":1,"la1":30.2991,"la2":30.254,"lo1":-89.0895,"lo2":-89.0444,"dy":0.0017,"dx":0.0017,"nx":28,"ny":28,"refTime":"2023-08-10T03:00:00:Z","depth":0,"parameterNumber":2,"parameterNumberName":"U-component_of_WINDS"},"data":[0,0,0,0,0,0,0,0,0,0,0,0,0,0,0,0,0,0,0,0,0,0,0,0,0,0,0,0,0,0,0,0,0,0,0,0,0,0,0,0,0,0,0,0,0,0,0,0,0,0,0,0,0,0,0,0,0,0,2.2342,2.2343,0,2.2394,2.2395,2.2395,2.2403,2.2402,2.2402,2.2402,2.2455,2.2457,2.2459,0,0,0,0,0,0,0,0,0,0,0,0,0,2.2255,2.2257,2.2342,2.2343,2.2344,2.2394,2.2395,2.2395,2.2403,2.2402,2.2402,2.2401,2.2455,2.2457,2.2459,0,0,0,0,0,0,0,0,0,0,0,0,0,2.2299,2.2257,2.2342,2.2353,2.2355,2.2394,2.2395,2.2396,2.2403,2.2402,2.2402,2.2401,2.2454,2.2457,2.246,2.2491,0,0,2.2468,2.2469,0,0,0,0,0,0,0,0,2.2296,2.2302,2.2351,2.2353,2.2355,2.2391,2.2384,2.2428,2.2403,2.2385,2.2402,2.2401,2.2435,2.2439,2.245,2.2493,2.2496,2.2468,2.247,2.2471,2.2472,0,0,0,0,0,0,0,2.2293,2.23,2.2363,2.2352,2.2354,2.2358,2.2363,2.2392,2.2413,2.2386,2.2387,2.2393,2.2435,2.2448,2.2452,2.2497,2.2468,2.2471,2.2473,2.2474,2.2575,2.2576,0,0,0,0,0,0,2.2288,2.2297,2.2361,2.2364,2.2323,2.236,2.2366,2.238,2.2413,2.2417,2.2394,2.2393,2.2443,2.2448,2.2454,2.2496,2.2471,2.2474,2.2475,2.2574,2.2575,2.2576,0,0,0,0,0,0,2.2286,2.2293,2.2359,2.2331,2.234,2.2362,2.2378,2.2382,2.2394,2.2418,2.2422,2.2402,2.2443,2.245,2.2483,2.2498,2.2475,2.2478,2.2573,2.2574,2.2576,2.2579,0,0,0,0,0,0,2.2283,2.2293,2.2303,2.2331,2.2341,2.2386,2.2379,2.2383,2.2398,2.2398,2.2427,2.2431,2.2443,2.2479,2.2486,2.2501,2.248,2.2571,2.2573,2.2575,2.2577,2.258,2.2582,0,0,0,0,0,2.228,2.2301,2.2303,2.2311,2.2354,2.2386,2.2392,2.2405,2.2399,2.2411,2.2429,2.243,2.2495,2.2482,2.249,2.2506,2.257,2.2573,2.2575,2.2576,2.2579,2.2582,0,0,0,0,0,0,2.2272,2.2304,2.2308,2.2337,2.236,2.2388,2.2402,2.2407,2.2431,2.243,2.2446,2.2452,2.2486,2.25,2.2484,2.2542,2.2533,2.2537,2.2531,2.2534,2.2537,2.2533,2.2482,0,0,0,0,0,2.2274,2.2296,2.2324,2.2348,2.2359,2.2379,2.2393,2.2402,2.2425,2.2434,2.2453,2.2477,2.2503,2.252,2.2545,2.258,2.2589,2.2596,2.2599,2.2601,2.2604,2.2629,2.2633,2.2584,2.2584,2.2583,0,0,2.2278,2.2298,2.2311,2.2347,2.2364,2.2389,2.2386,2.2411,2.2431,2.2438,2.2471,2.2487,2.2515,2.255,2.2567,2.2563,2.262,2.2604,2.2605,2.2607,2.2632,2.2636,2.264,2.2585,2.2585,2.2585,0,0,2.2297,2.2314,2.2337,2.2357,2.2385,2.2399,2.2405,2.2434,2.2445,2.2479,2.2487,2.2512,2.2555,2.2576,2.2592,2.2627,2.2631,2.2636,2.2648,2.2672,2.2676,2.268,2.2695,2.27,2.2639,2.2639,2.2639,0,2.2298,2.2334,2.2349,2.2375,2.2393,2.2403,2.2429,2.2447,2.2482,2.2495,2.249,2.255,2.2568,2.2612,2.2621,2.2633,2.2643,2.2631,2.2674,2.2678,2.2682,2.2697,2.2702,2.2639,2.2639,2.2639,2.2639,0,2.2335,2.2361,2.2377,2.2413,2.2432,2.2458,2.248,2.2498,2.2507,2.2523,2.2561,2.2585,2.2618,2.2629,2.2636,2.2675,2.2672,2.2671,2.2662,2.2687,2.2701,2.2707,2.264,2.264,2.2639,2.2639,0,0,2.2346,2.2394,2.24,2.2418,2.2453,2.2474,2.2503,2.2536,2.2553,2.2578,2.2605,2.2645,2.2646,2.2665,2.2676,2.2697,2.2728,2.2694,2.2695,2.2701,2.2777,2.2777,2.2783,2.2732,2.2733,2.2734,2.2775,0,2.2371,2.2421,2.2439,2.2481,2.2508,2.2521,2.2547,2.2573,2.2591,2.2618,2.2638,2.2667,2.2664,2.2677,2.2698,2.272,2.2744,2.2717,2.2759,2.276,2.2751,2.279,2.279,2.2827,2.278,2.2781,2.2782,0,2.2404,2.2432,2.2478,2.2515,2.2527,2.2549,2.2584,2.2608,2.264,2.2652,2.2676,2.2688,2.2722,2.2713,2.2763,2.2745,2.2764,2.2778,2.278,2.2784,2.2772,2.2797,2.2839,2.2845,2.2791,2.279,2.2789,0,2.241,2.246,2.2495,2.251,2.2553,2.2569,2.2588,2.2619,2.264,2.2671,2.2686,2.272,2.2739,2.2767,2.279,2.278,2.2839,2.283,2.2852,2.2851,2.2862,2.2861,2.2909,2.2874,2.2874,2.2874,2.2873,0,2.2435,2.2463,2.2498,2.2519,2.2553,2.2576,2.2609,2.2629,2.2658,2.2686,2.27,2.2727,2.2754,2.2785,2.2803,2.2844,2.2852,2.2864,2.2869,2.2863,2.2862,2.2875,2.2873,2.2875,2.2875,2.2874,2.2874,0,2.2446,2.247,2.251,2.2549,2.256,2.2584,2.2618,2.2642,2.2662,2.2698,2.2708,2.274,2.2778,2.2804,2.2852,2.2865,2.291,2.2913,2.2899,2.2901,2.2922,2.292,2.2979,2.299,2.2947,2.2948,2.2948,0,2.246,2.2482,2.2526,2.2546,2.2565,2.2596,2.2619,2.2644,2.2667,2.2709,2.2728,2.2767,2.28,2.2861,2.289,2.2928,2.2934,2.2952,2.2939,2.2935,2.2936,2.2935,2.2939,2.2954,2.2954,2.2954,2.2955,0,2.2483,2.2496,2.2526,2.2564,2.259,2.2621,2.2651,2.2667,2.2699,2.2724,2.2764,2.279,2.2841,2.2882,2.2924,2.2946,2.2957,2.2959,2.2967,2.296,2.2952,2.2959,2.2905,2.2957,2.2957,2.2957,2.2956,2.2956,2.2497,2.2519,2.2555,2.259,2.2617,2.2647,2.2672,2.2698,2.2731,2.2775,2.2789,2.2831,2.2869,2.2927,2.2951,2.2986,2.2985,2.2994,2.2997,2.2999,2.3001,2.2947,2.2994,2.2994,2.2994,2.2994,2.2994,0,2.2522,2.2547,2.258,2.2624,2.2654,2.2662,2.2699,2.2723,2.276,2.2794,2.2827,2.2876,2.2917,2.2952,2.2995,2.3017,2.3024,2.3028,2.3026,2.3032,2.2998,2.2989,2.3022,2.3022,2.3022,2.3022,2.3022,2.3022,2.2539,2.2579,2.2597,2.2652,2.2677,2.2718,2.2739,2.2768,2.2796,2.285,2.2884,2.2907,2.2943,2.299,2.303,2.3039,2.3055,2.3059,2.307,2.3037,2.3034,2.3031,2.3022,2.3062,2.3062,2.3101,2.3101,2.3101]},{"header":{"parameterUnit":"m.s-1","parameterCategory":1,"la1":30.2991,"la2":30.254,"lo1":-89.0895,"lo2":-89.0444,"dy":0.0017,"dx":0.0017,"nx":28,"ny":28,"refTime":"2023-08-10T03:00:00:Z","depth":0,"parameterNumber":3,"parameterNumberName":"V-component_of_WINDS"},"data":[0,0,0,0,0,0,0,0,0,0,0,0,0,0,0,0,0,0,0,0,0,0,0,0,0,0,0,0,0,0,0,0,0,0,0,0,0,0,0,0,0,0,0,0,0,0,0,0,0,0,0,0,0,0,0,0,0,0,3.4447,3.445,0,3.4737,3.474,3.4744,3.4826,3.4825,3.4823,3.4822,3.512,3.5129,3.5138,0,0,0,0,0,0,0,0,0,0,0,0,0,3.3964,3.3973,3.4446,3.445,3.4454,3.4736,3.474,3.4744,3.4827,3.4825,3.4823,3.4821,3.5117,3.5128,3.5139,0,0,0,0,0,0,0,0,0,0,0,0,0,3.4206,3.3976,3.4446,3.4529,3.4539,3.4736,3.4741,3.4745,3.4827,3.4825,3.4822,3.482,3.5113,3.5127,3.5141,3.5276,0,0,3.5184,3.519,0,0,0,0,0,0,0,0,3.4192,3.4224,3.4513,3.4523,3.4535,3.4743,3.468,3.4923,3.4828,3.4718,3.4822,3.4819,3.4996,3.502,3.508,3.529,3.5303,3.5185,3.5194,3.52,3.5204,0,0,0,0,0,0,0,3.4175,3.4212,3.4561,3.4517,3.4531,3.4552,3.4584,3.4726,3.4867,3.4727,3.4734,3.4767,3.5002,3.5066,3.5087,3.5307,3.5185,3.5197,3.5206,3.5211,3.5644,3.5646,0,0,0,0,0,0,3.4144,3.4197,3.4552,3.457,3.4354,3.4562,3.4598,3.4679,3.4866,3.4892,3.4769,3.477,3.5043,3.5071,3.5098,3.527,3.52,3.5213,3.5221,3.5641,3.5644,3.5647,0,0,0,0,0,0,3.4134,3.4175,3.4541,3.4386,3.4434,3.4573,3.4663,3.4686,3.475,3.4897,3.4923,3.4808,3.5042,3.5078,3.5231,3.5281,3.5219,3.5232,3.5637,3.5642,3.5646,3.5613,0,0,0,0,0,0,3.4119,3.4171,3.4223,3.4386,3.4442,3.4668,3.4666,3.4693,3.4774,3.4778,3.4941,3.4965,3.5043,3.521,3.5245,3.53,3.5243,3.5633,3.5639,3.5644,3.561,3.5616,3.562,0,0,0,0,0,3.4102,3.4202,3.4226,3.4268,3.451,3.4671,3.4703,3.479,3.4777,3.4832,3.4926,3.496,3.5269,3.5225,3.5265,3.5325,3.5631,3.5637,3.5644,3.5608,3.5615,3.562,0,0,0,0,0,0,3.4042,3.4225,3.4253,3.4409,3.4524,3.4685,3.4756,3.4794,3.4915,3.4914,3.5017,3.5053,3.5199,3.5277,3.5224,3.5466,3.5451,3.5466,3.5409,3.5417,3.5422,3.5401,3.5255,0,0,0,0,0,3.4047,3.4162,3.4316,3.4439,3.4495,3.4615,3.4688,3.4745,3.4869,3.4918,3.5024,3.5142,3.5266,3.5346,3.5468,3.5621,3.5659,3.5682,3.5687,3.5691,3.5703,3.5791,3.5804,3.567,3.567,3.5669,0,0,3.4058,3.4173,3.4239,3.443,3.4525,3.4643,3.4656,3.4779,3.4867,3.4937,3.5088,3.5169,3.5309,3.5462,3.5536,3.5532,3.5748,3.5699,3.5701,3.5712,3.58,3.5812,3.5823,3.5674,3.5673,3.5673,0,0,3.414,3.4237,3.4351,3.4446,3.4591,3.467,3.4697,3.4853,3.491,3.5063,3.5118,3.5224,3.5435,3.5533,3.561,3.5727,3.5764,3.5764,3.5792,3.5876,3.5887,3.5897,3.594,3.5954,3.5776,3.5776,3.5776,0,3.4136,3.4314,3.4404,3.4526,3.4608,3.4676,3.4792,3.4881,3.5057,3.5113,3.5107,3.5374,3.5472,3.565,3.5679,3.5739,3.5774,3.5747,3.5878,3.5889,3.5899,3.5942,3.5958,3.5775,3.5775,3.5775,3.5775,0,3.4303,3.4426,3.4501,3.467,3.4761,3.4878,3.4987,3.5068,3.5117,3.5197,3.5353,3.5473,3.5621,3.5667,3.5716,3.5853,3.5847,3.5857,3.5845,3.591,3.5952,3.5969,3.5774,3.5774,3.5774,3.5775,0,0,3.4355,3.4573,3.4599,3.4677,3.4841,3.4938,3.5059,3.5204,3.5272,3.5392,3.5497,3.5674,3.5686,3.5773,3.5833,3.5907,3.5995,3.591,3.5915,3.5923,3.6154,3.6146,3.6163,3.6019,3.6022,3.6025,3.6143,0,3.4458,3.4677,3.4761,3.494,3.5056,3.5122,3.5228,3.534,3.5418,3.5528,3.5614,3.5738,3.5743,3.5797,3.5873,3.5967,3.6043,3.596,3.6119,3.6123,3.6083,3.6185,3.6176,3.6282,3.6159,3.6162,3.6164,0,3.4607,3.4728,3.4919,3.507,3.5121,3.5215,3.5355,3.5458,3.5588,3.5639,3.5737,3.5793,3.5923,3.5901,3.6082,3.6024,3.6094,3.615,3.6156,3.6176,3.6148,3.6208,3.6317,3.6333,3.6191,3.6189,3.6187,0,3.4627,3.4838,3.498,3.5044,3.5224,3.5288,3.5366,3.5493,3.5575,3.5697,3.5751,3.5887,3.5961,3.6065,3.6157,3.6132,3.633,3.6315,3.6377,3.6375,3.6417,3.6414,3.654,3.6459,3.6459,3.6459,3.6458,0,3.4734,3.4848,3.4991,3.5078,3.5208,3.5305,3.5431,3.5513,3.5625,3.573,3.5795,3.5892,3.6006,3.6118,3.619,3.633,3.6363,3.6409,3.6427,3.6404,3.6399,3.6452,3.6448,3.6463,3.6462,3.6461,3.646,0,3.4779,3.4879,3.5038,3.5195,3.5237,3.5326,3.5461,3.5548,3.5629,3.5761,3.5797,3.5924,3.6059,3.616,3.6335,3.6384,3.6533,3.6551,3.649,3.6499,3.6556,3.655,3.6724,3.6752,3.6649,3.665,3.6651,0,3.4841,3.493,3.5097,3.5172,3.5249,3.5368,3.5453,3.5551,3.5635,3.579,3.5859,3.5998,3.6115,3.6328,3.6436,3.6571,3.6594,3.6645,3.6614,3.6589,3.6596,3.659,3.6601,3.6649,3.665,3.6651,3.6651,0,3.494,3.4986,3.5104,3.5241,3.5339,3.5451,3.5564,3.5622,3.574,3.5832,3.5971,3.6062,3.6241,3.6379,3.6524,3.6605,3.6649,3.666,3.6682,3.666,3.6621,3.6644,3.6503,3.6656,3.6655,3.6655,3.6655,3.6654,3.4997,3.508,3.5211,3.5341,3.5436,3.5541,3.5631,3.5723,3.584,3.5994,3.6044,3.6188,3.6316,3.6516,3.6598,3.6712,3.6713,3.6744,3.6752,3.6759,3.6758,3.6601,3.6739,3.6739,3.6739,3.6739,3.6739,0,3.5102,3.5189,3.5307,3.5464,3.5566,3.5597,3.5725,3.5808,3.5934,3.605,3.6164,3.6324,3.6458,3.6577,3.6717,3.6786,3.6809,3.6819,3.6816,3.6834,3.6749,3.6717,3.6798,3.6798,3.6798,3.6798,3.6798,3.6798,3.5168,3.531,3.5371,3.5562,3.5649,3.579,3.586,3.5958,3.605,3.6226,3.6338,3.6415,3.6532,3.6681,3.6806,3.6838,3.6887,3.6893,3.6929,3.6847,3.684,3.6833,3.6804,3.6902,3.6902,3.7006,3.7007,3.7007]}]]